�������l�o���
Date,Time,MP-1(��Sv/h),MP-2(��Sv/h),MP-3(��Sv/h),MP-4(��Sv/h),MP-5(��Sv/h),MP-6(��Sv/h),MP-7(��Sv/h),MP-8(��Sv/h),����,����(m/s),���J
2019/04/03,00:00,0.763,1.125,0.773,1.434,1.040,0.437,0.774,0.735,���k��,5.4,��
2019/04/03,00:10,0.761,1.122,0.774,1.432,1.038,0.435,0.774,0.736,���k��,5.3,��
2019/04/03,00:20,0.761,1.122,0.774,1.432,1.038,0.435,0.775,0.735,���k��,5.6,��
2019/04/03,00:30,0.761,1.121,0.774,1.434,1.035,0.436,0.774,0.736,���k��,5.1,��
2019/04/03,00:40,0.762,1.125,0.774,1.435,1.039,0.436,0.774,0.734,���k��,5.8,��
2019/04/03,00:50,0.763,1.123,0.773,1.431,1.039,0.434,0.774,0.736,���k��,6.7,��
2019/04/03,01:00,0.762,1.123,0.774,1.431,1.036,0.434,0.773,0.734,���k��,5.5,��
2019/04/03,01:10,0.764,1.124,0.774,1.431,1.036,0.436,0.774,0.734,���k��,4.4,��
2019/04/03,01:20,0.763,1.122,0.774,1.432,1.037,0.435,0.772,0.735,��,2.8,��
2019/04/03,01:30,0.764,1.120,0.775,1.433,1.035,0.434,0.774,0.734,��,2.8,��
2019/04/03,01:40,0.763,1.118,0.774,1.433,1.034,0.435,0.775,0.736,���k��,3.1,��
2019/04/03,01:50,0.761,1.122,0.774,1.434,1.036,0.435,0.774,0.734,���k��,3.4,��
2019/04/03,02:00,0.762,1.121,0.774,1.435,1.036,0.435,0.773,0.736,���k��,4.6,��
2019/04/03,02:10,0.761,1.119,0.773,1.432,1.036,0.435,0.774,0.736,���k��,4.7,��
2019/04/03,02:20,0.763,1.119,0.773,1.433,1.035,0.434,0.773,0.734,���k��,6.9,��
2019/04/03,02:30,0.762,1.120,0.774,1.432,1.036,0.435,0.775,0.735,�k��,9.6,��
2019/04/03,02:40,0.762,1.120,0.773,1.430,1.037,0.434,0.775,0.737,�k��,10.0,��
2019/04/03,02:50,0.762,1.120,0.772,1.433,1.036,0.434,0.775,0.736,�k��,6.1,��
2019/04/03,03:00,0.762,1.118,0.773,1.433,1.035,0.435,0.774,0.735,�k��,6.0,��
2019/04/03,03:10,0.762,1.122,0.774,1.433,1.039,0.434,0.774,0.734,�k��,5.9,��
2019/04/03,03:20,0.764,1.120,0.774,1.432,1.036,0.433,0.774,0.735,�k��,5.7,��
2019/04/03,03:30,0.762,1.120,0.774,1.433,1.038,0.434,0.776,0.734,�k��,6.2,��
2019/04/03,03:40,0.761,1.121,0.775,1.433,1.035,0.432,0.774,0.733,�k��,6.2,��
2019/04/03,03:50,0.761,1.119,0.773,1.434,1.037,0.435,0.775,0.734,�k��,6.1,��
2019/04/03,04:00,0.761,1.120,0.773,1.431,1.038,0.434,0.775,0.737,�k��,5.6,��
2019/04/03,04:10,0.759,1.122,0.773,1.435,1.035,0.434,0.776,0.735,�k��,5.0,��
2019/04/03,04:20,0.760,1.122,0.771,1.434,1.037,0.435,0.775,0.735,�k��,4.5,��
2019/04/03,04:30,0.761,1.119,0.775,1.433,1.036,0.434,0.774,0.735,�k��,5.2,��
2019/04/03,04:40,0.763,1.121,0.772,1.432,1.036,0.434,0.775,0.736,�k��,4.2,��
2019/04/03,04:50,0.763,1.120,0.773,1.432,1.038,0.435,0.775,0.735,�k��,4.7,��
2019/04/03,05:00,0.760,1.118,0.772,1.434,1.036,0.433,0.776,0.734,���k��,3.2,��
2019/04/03,05:10,0.760,1.118,0.772,1.434,1.035,0.434,0.774,0.735,���k��,2.2,��
2019/04/03,05:20,0.760,1.119,0.774,1.430,1.034,0.432,0.775,0.735,���k��,1.4,��
2019/04/03,05:30,0.760,1.121,0.774,1.432,1.038,0.433,0.774,0.735,-,CALM,��
2019/04/03,05:40,0.761,1.119,0.772,1.434,1.036,0.434,0.774,0.735,��,1.2,��
2019/04/03,05:50,0.762,1.119,0.771,1.432,1.033,0.434,0.776,0.735,��,2.5,��
2019/04/03,06:00,0.761,1.121,0.772,1.431,1.034,0.433,0.774,0.734,��,3.4,��
2019/04/03,06:10,0.761,1.118,0.776,1.431,1.036,0.434,0.773,0.736,��,4.6,��
2019/04/03,06:20,0.762,1.120,0.773,1.432,1.037,0.435,0.774,0.735,��,5.6,��
2019/04/03,06:30,0.763,1.119,0.774,1.434,1.036,0.434,0.776,0.736,���k��,7.1,��
2019/04/03,06:40,0.762,1.119,0.774,1.432,1.037,0.437,0.776,0.737,��,6.5,��
2019/04/03,06:50,0.760,1.119,0.773,1.434,1.037,0.435,0.776,0.734,��,4.8,��
2019/04/03,07:00,0.762,1.120,0.774,1.432,1.035,0.435,0.776,0.737,���k��,5.5,��
2019/04/03,07:10,0.764,1.120,0.773,1.435,1.035,0.435,0.775,0.736,���k��,4.7,��
2019/04/03,07:20,0.762,1.121,0.775,1.431,1.036,0.435,0.775,0.736,���k��,4.7,��
2019/04/03,07:30,0.764,1.121,0.772,1.436,1.037,0.434,0.776,0.734,�k��,6.2,��
2019/04/03,07:40,0.764,1.118,0.772,1.433,1.039,0.435,0.774,0.736,�k��,5.8,��
2019/04/03,07:50,0.762,1.119,0.775,1.432,1.040,0.436,0.777,0.737,���k��,4.5,��
2019/04/03,08:00,0.763,1.120,0.775,1.435,1.037,0.436,0.777,0.737,�k��,3.1,��
2019/04/03,08:10,0.762,1.122,0.775,1.438,1.038,0.434,0.777,0.736,�k��,5.9,��
2019/04/03,08:20,0.763,1.122,0.776,1.435,1.038,0.436,0.777,0.737,�k��,6.3,��
2019/04/03,08:30,0.761,1.118,0.773,1.435,1.036,0.436,0.777,0.737,�k��,6.6,�L
2019/04/03,08:40,0.765,1.121,0.775,1.434,1.036,0.436,0.777,0.737,���k��,5.3,��
2019/04/03,08:50,0.764,1.122,0.774,1.434,1.039,0.436,0.777,0.737,���k��,5.3,�L
2019/04/03,09:00,0.765,1.118,0.775,1.435,1.041,0.437,0.777,0.737,���k��,5.2,��
2019/04/03,09:10,0.765,1.121,0.775,1.434,1.041,0.435,0.777,0.737,���k��,3.0,��
2019/04/03,09:20,0.764,1.120,0.774,1.435,1.043,0.436,0.776,0.736,��,4.6,��
2019/04/03,09:30,0.766,1.122,0.775,1.435,1.038,0.435,0.775,0.737,���k��,3.3,��
2019/04/03,09:40,0.768,1.121,0.774,1.434,1.039,0.435,0.773,0.736,��,3.2,��
2019/04/03,09:50,0.767,1.122,0.775,1.436,1.041,0.436,0.774,0.738,��,4.2,��
2019/04/03,10:00,0.766,1.120,0.775,1.438,1.044,0.436,0.775,0.735,���k��,8.2,��
2019/04/03,10:10,0.767,1.122,0.775,1.435,1.041,0.436,0.774,0.736,���k��,7.2,��
2019/04/03,10:20,0.766,1.119,0.777,1.437,1.043,0.437,0.774,0.736,�k��,6.5,��
2019/04/03,10:30,0.766,1.117,0.777,1.438,1.041,0.438,0.776,0.735,�k��,7.7,��
2019/04/03,10:40,0.769,1.120,0.776,1.438,1.042,0.436,0.776,0.736,���k��,5.7,��
2019/04/03,10:50,0.769,1.119,0.777,1.440,1.042,0.435,0.775,0.736,���k��,6.1,��
2019/04/03,11:00,0.767,1.122,0.778,1.440,1.042,0.435,0.777,0.737,�k��,4.4,��
2019/04/03,11:10,0.768,1.118,0.778,1.439,1.044,0.435,0.778,0.735,���k��,7.2,��
2019/04/03,11:20,0.769,1.122,0.775,1.438,1.043,0.435,0.778,0.735,���k��,5.6,��
2019/04/03,11:30,0.767,1.123,0.779,1.439,1.044,0.436,0.776,0.736,�k��,7.0,��
2019/04/03,11:40,0.770,1.122,0.776,1.440,1.044,0.437,0.778,0.736,�k��,6.8,��
2019/04/03,11:50,0.768,1.122,0.777,1.443,1.043,0.436,0.777,0.736,��,5.7,��
2019/04/03,12:00,0.769,1.128,0.779,1.439,1.043,0.437,0.778,0.735,���k��,5.4,��
2019/04/03,12:10,0.769,1.126,0.780,1.438,1.044,0.439,0.776,0.737,���k��,6.4,��
2019/04/03,12:20,0.768,1.129,0.780,1.441,1.042,0.437,0.777,0.736,�k��,3.0,��
2019/04/03,12:30,0.770,1.125,0.778,1.441,1.043,0.438,0.777,0.735,��,3.3,��
2019/04/03,12:40,0.767,1.123,0.778,1.441,1.044,0.439,0.778,0.734,��,9.2,��
2019/04/03,12:50,0.771,1.126,0.777,1.443,1.042,0.438,0.778,0.734,���k��,7.8,��
2019/04/03,13:00,0.771,1.125,0.781,1.440,1.043,0.437,0.777,0.735,���k��,7.0,��
2019/04/03,13:10,0.769,1.124,0.777,1.442,1.044,0.438,0.778,0.736,���k��,6.6,��
2019/04/03,13:20,0.769,1.121,0.779,1.441,1.044,0.437,0.776,0.734,���k��,7.4,�L
2019/04/03,13:30,0.769,1.123,0.779,1.442,1.046,0.439,0.776,0.736,��,9.0,�L
2019/04/03,13:40,0.769,1.127,0.777,1.440,1.047,0.438,0.775,0.737,��,6.4,�L
2019/04/03,13:50,0.770,1.133,0.781,1.444,1.046,0.438,0.777,0.738,���쐼,4.4,��
2019/04/03,14:00,0.771,1.127,0.779,1.444,1.046,0.440,0.778,0.737,��,3.9,��
2019/04/03,14:10,0.771,1.129,0.780,1.443,1.047,0.439,0.777,0.739,��,4.8,��
2019/04/03,14:20,0.770,1.125,0.779,1.443,1.047,0.439,0.778,0.737,�k��,6.5,��
2019/04/03,14:30,0.769,1.126,0.779,1.443,1.047,0.439,0.779,0.737,���k��,5.0,��
2019/04/03,14:40,0.768,1.124,0.781,1.443,1.047,0.440,0.776,0.736,�k��,4.7,��
2019/04/03,14:50,0.767,1.121,0.778,1.443,1.047,0.440,0.776,0.736,�k��,5.7,��
2019/04/03,15:00,0.768,1.126,0.779,1.444,1.045,0.439,0.777,0.736,�k��,8.2,��
2019/04/03,15:10,0.770,1.124,0.779,1.443,1.043,0.438,0.777,0.736,�k��,7.3,��
2019/04/03,15:20,0.769,1.127,0.779,1.442,1.042,0.437,0.777,0.735,�k��,7.3,��
2019/04/03,15:30,0.770,1.127,0.780,1.443,1.045,0.438,0.777,0.735,�k��,8.1,��
2019/04/03,15:40,0.770,1.129,0.778,1.444,1.047,0.440,0.776,0.738,�k��,9.8,��
2019/04/03,15:50,0.772,1.129,0.780,1.443,1.048,0.438,0.777,0.740,�k��,5.9,��
2019/04/03,16:00,0.770,1.132,0.780,1.445,1.047,0.439,0.775,0.739,�k��,4.5,��
2019/04/03,16:10,0.771,1.132,0.779,1.441,1.051,0.438,0.778,0.739,�k��,5.2,��
2019/04/03,16:20,0.770,1.130,0.779,1.443,1.051,0.440,0.775,0.740,�k��,6.2,��
2019/04/03,16:30,0.772,1.133,0.780,1.443,1.048,0.439,0.776,0.740,�k��,9.5,��
2019/04/03,16:40,0.771,1.131,0.781,1.440,1.048,0.437,0.777,0.738,�k��,7.7,��
2019/04/03,16:50,0.772,1.133,0.780,1.446,1.049,0.438,0.778,0.738,�k��,8.7,��
2019/04/03,17:00,0.772,1.131,0.780,1.443,1.051,0.439,0.780,0.737,�k��,6.0,��
2019/04/03,17:10,0.772,1.134,0.779,1.445,1.051,0.439,0.777,0.739,�k��,6.2,��
2019/04/03,17:20,0.771,1.135,0.781,1.443,1.049,0.437,0.777,0.739,�k��,6.8,��
2019/04/03,17:30,0.769,1.134,0.780,1.445,1.047,0.438,0.777,0.736,�k��,6.1,��
2019/04/03,17:40,0.770,1.132,0.781,1.445,1.049,0.439,0.778,0.738,��,3.7,��
2019/04/03,17:50,0.770,1.134,0.781,1.443,1.048,0.438,0.777,0.737,���쐼,6.0,��
2019/04/03,18:00,0.770,1.131,0.780,1.444,1.049,0.438,0.778,0.739,��,5.3,��
2019/04/03,18:10,0.770,1.134,0.779,1.444,1.048,0.437,0.777,0.738,���쐼,6.1,��
2019/04/03,18:20,0.770,1.134,0.780,1.447,1.047,0.438,0.779,0.738,���쐼,6.2,��
2019/04/03,18:30,0.770,1.133,0.779,1.445,1.049,0.436,0.779,0.738,��,6.7,��
2019/04/03,18:40,0.769,1.132,0.779,1.443,1.048,0.436,0.779,0.737,���k��,6.8,��
2019/04/03,18:50,0.768,1.134,0.780,1.443,1.047,0.437,0.778,0.737,��,4.9,��
2019/04/03,19:00,0.770,1.132,0.778,1.445,1.049,0.439,0.779,0.738,��,6.2,��
2019/04/03,19:10,0.766,1.133,0.779,1.444,1.046,0.436,0.779,0.738,��,6.0,��
2019/04/03,19:20,0.769,1.132,0.779,1.446,1.048,0.440,0.778,0.737,���k��,6.4,��
2019/04/03,19:30,0.770,1.132,0.780,1.443,1.046,0.437,0.776,0.736,���k��,6.7,��
2019/04/03,19:40,0.768,1.132,0.778,1.446,1.049,0.437,0.779,0.737,���k��,4.3,��
2019/04/03,19:50,0.769,1.130,0.778,1.444,1.047,0.438,0.777,0.737,���k��,2.6,��
2019/04/03,20:00,0.768,1.131,0.777,1.443,1.046,0.436,0.777,0.737,���k��,2.6,��
2019/04/03,20:10,0.768,1.130,0.778,1.444,1.047,0.437,0.779,0.738,���k��,3.0,��
2019/04/03,20:20,0.770,1.133,0.779,1.445,1.049,0.438,0.778,0.736,�k��,3.3,��
2019/04/03,20:30,0.770,1.133,0.779,1.444,1.049,0.436,0.777,0.738,�k��,3.5,��
2019/04/03,20:40,0.768,1.129,0.779,1.443,1.047,0.438,0.777,0.738,�k��,2.3,��
2019/04/03,20:50,0.767,1.133,0.780,1.444,1.047,0.439,0.776,0.736,�k�k��,2.0,��
2019/04/03,21:00,0.769,1.130,0.779,1.444,1.046,0.437,0.777,0.736,�k�k��,1.2,��
2019/04/03,21:10,0.768,1.130,0.778,1.447,1.046,0.437,0.778,0.736,�k�k��,2.0,��
2019/04/03,21:20,0.769,1.131,0.777,1.443,1.045,0.437,0.778,0.738,�k��,5.8,��
2019/04/03,21:30,0.767,1.133,0.780,1.443,1.045,0.436,0.775,0.735,�k��,5.0,��
2019/04/03,21:40,0.769,1.130,0.780,1.442,1.047,0.437,0.777,0.738,���k��,4.3,��
2019/04/03,21:50,0.767,1.131,0.779,1.443,1.047,0.438,0.775,0.736,���k��,3.0,��
2019/04/03,22:00,0.767,1.131,0.780,1.444,1.049,0.436,0.776,0.736,��,2.2,��
2019/04/03,22:10,0.768,1.131,0.778,1.443,1.047,0.437,0.776,0.738,��,2.8,��
2019/04/03,22:20,0.768,1.129,0.780,1.444,1.045,0.436,0.776,0.735,��,3.8,��
2019/04/03,22:30,0.767,1.129,0.778,1.444,1.046,0.437,0.777,0.737,��,5.4,��
2019/04/03,22:40,0.769,1.130,0.780,1.441,1.045,0.437,0.776,0.736,��,6.3,��
2019/04/03,22:50,0.767,1.130,0.778,1.445,1.047,0.438,0.777,0.736,���k��,4.5,��
2019/04/03,23:00,0.769,1.129,0.778,1.441,1.046,0.436,0.776,0.735,���k��,4.4,��
2019/04/03,23:10,0.767,1.130,0.777,1.443,1.046,0.437,0.776,0.736,���k��,3.9,��
2019/04/03,23:20,0.768,1.130,0.777,1.442,1.047,0.437,0.777,0.738,��,3.2,��
2019/04/03,23:30,0.768,1.131,0.778,1.444,1.048,0.437,0.778,0.736,��,4.1,��
2019/04/03,23:40,0.764,1.127,0.779,1.443,1.047,0.438,0.776,0.737,���쐼,3.4,��
2019/04/03,23:50,0.767,1.130,0.779,1.444,1.048,0.438,0.777,0.737,���쐼,4.5,��
